Time,TemperatureF,DewpointF,PressureIn,WindDirection,WindDirectionDegrees,WindSpeedMPH,WindSpeedGustMPH,Humidity,HourlyPrecipIn,Conditions,Clouds,dailyrainin,SoftwareType,DateUTC
2013-02-19 00:07:00,17.5,5.0,30.03,ESE,108,0.0,-999.0,59,-99.99,,,0.00,weatherlink.com 1.10,2013-02-19 05:07:00,
2013-02-19 00:22:00,17.7,6.0,30.04,ESE,105,0.0,-999.0,60,-99.99,,,0.00,weatherlink.com 1.10,2013-02-19 05:22:00,
2013-02-19 00:37:00,18.4,6.0,30.04,ESE,105,0.0,-999.0,58,-99.99,,,0.00,weatherlink.com 1.10,2013-02-19 05:37:00,
2013-02-19 00:52:00,18.9,7.0,30.03,ESE,104,0.0,-999.0,60,-99.99,,,0.00,weatherlink.com 1.10,2013-02-19 05:52:00,
2013-02-19 01:07:00,19.2,7.0,30.03,ESE,104,0.0,-999.0,59,-99.99,,,0.00,weatherlink.com 1.10,2013-02-19 06:07:00,
2013-02-19 01:22:00,19.4,7.0,30.02,ESE,104,0.0,-999.0,58,-99.99,,,0.00,weatherlink.com 1.10,2013-02-19 06:22:00,
2013-02-19 01:37:00,19.7,7.0,30.02,ESE,104,0.0,-999.0,58,-99.99,,,0.00,weatherlink.com 1.10,2013-02-19 06:37:00,
2013-02-19 01:52:00,19.9,7.0,30.01,ESE,104,0.0,-999.0,58,-99.99,,,0.00,weatherlink.com 1.10,2013-02-19 06:52:00,
2013-02-19 02:07:00,20.3,7.0,30.01,ESE,103,0.0,-999.0,57,-99.99,,,0.00,weatherlink.com 1.10,2013-02-19 07:07:00,
2013-02-19 02:22:00,20.5,7.0,30.00,ESE,103,0.0,-999.0,57,-99.99,,,0.00,weatherlink.com 1.10,2013-02-19 07:22:00,
2013-02-19 02:37:00,20.5,7.0,30.00,ESE,103,0.0,-999.0,57,-99.99,,,0.00,weatherlink.com 1.10,2013-02-19 07:37:00,
2013-02-19 02:52:00,20.6,7.0,30.00,ESE,103,0.0,-999.0,56,-99.99,,,0.00,weatherlink.com 1.10,2013-02-19 07:52:00,
2013-02-19 03:07:00,20.8,7.0,29.98,ESE,103,0.0,-999.0,56,-99.99,,,0.00,weatherlink.com 1.10,2013-02-19 08:07:00,
2013-02-19 03:22:00,20.6,7.0,29.97,ESE,103,0.0,-999.0,57,-99.99,,,0.00,weatherlink.com 1.10,2013-02-19 08:22:00,
2013-02-19 03:37:00,20.8,8.0,29.97,ESE,103,0.0,-999.0,57,-99.99,,,0.00,weatherlink.com 1.10,2013-02-19 08:37:00,
2013-02-19 03:52:00,21.3,7.0,29.95,ESE,103,0.0,-999.0,55,-99.99,,,0.00,weatherlink.com 1.10,2013-02-19 08:52:00,
2013-02-19 04:07:00,21.4,8.0,29.95,ESE,103,0.0,-999.0,56,-99.99,,,0.00,weatherlink.com 1.10,2013-02-19 09:07:00,
2013-02-19 04:24:00,21.3,8.0,29.95,ESE,103,0.0,-999.0,56,-99.99,,,0.00,weatherlink.com 1.10,2013-02-19 09:24:00,
2013-02-19 04:37:00,21.4,8.0,29.93,ESE,103,0.0,-999.0,56,-99.99,,,0.00,weatherlink.com 1.10,2013-02-19 09:37:00,
2013-02-19 04:52:00,21.6,8.0,29.93,ESE,103,0.0,-999.0,56,-99.99,,,0.00,weatherlink.com 1.10,2013-02-19 09:52:00,
2013-02-19 05:07:00,22.1,8.0,29.92,ESE,103,0.0,-999.0,55,-99.99,,,0.00,weatherlink.com 1.10,2013-02-19 10:07:00,
2013-02-19 05:23:00,22.4,8.0,29.89,ESE,103,0.0,-999.0,55,-99.99,,,0.00,weatherlink.com 1.10,2013-02-19 10:23:00,
2013-02-19 05:37:00,22.2,9.0,29.89,ESE,103,0.0,-999.0,56,-99.99,,,0.00,weatherlink.com 1.10,2013-02-19 10:37:00,
2013-02-19 05:52:00,23.0,9.0,29.89,ESE,102,0.0,-999.0,55,-99.99,,,0.00,weatherlink.com 1.10,2013-02-19 10:52:00,
2013-02-19 06:07:00,23.0,9.0,29.88,ESE,102,0.0,-999.0,55,-99.99,,,0.00,weatherlink.com 1.10,2013-02-19 11:07:00,
2013-02-19 06:22:00,23.5,9.0,29.87,ESE,102,0.0,-999.0,54,-99.99,,,0.00,weatherlink.com 1.10,2013-02-19 11:22:00,
2013-02-19 06:37:00,23.9,9.0,29.86,ESE,102,2.0,-999.0,54,-99.99,,,0.00,weatherlink.com 1.10,2013-02-19 11:37:00,
2013-02-19 06:52:00,24.1,10.0,29.85,East,101,0.0,-999.0,54,-99.99,,,0.00,weatherlink.com 1.10,2013-02-19 11:52:00,
2013-02-19 07:07:00,24.4,10.0,29.84,East,99,0.0,-999.0,54,-99.99,,,0.00,weatherlink.com 1.10,2013-02-19 12:07:00,
2013-02-19 07:23:00,24.7,10.0,29.84,East,90,0.0,-999.0,54,-99.99,,,0.00,weatherlink.com 1.10,2013-02-19 12:23:00,
2013-02-19 07:37:00,24.7,10.0,29.83,East,90,0.0,-999.0,54,-99.99,,,0.00,weatherlink.com 1.10,2013-02-19 12:37:00,
2013-02-19 07:52:00,25.6,10.0,29.82,East,91,0.0,-999.0,53,-99.99,,,0.00,weatherlink.com 1.10,2013-02-19 12:52:00,
2013-02-19 08:07:00,26.1,11.0,29.82,East,91,0.0,-999.0,54,-99.99,,,0.00,weatherlink.com 1.10,2013-02-19 13:07:00,
2013-02-19 08:22:00,26.9,12.0,29.81,East,95,0.0,-999.0,54,-99.99,,,0.00,weatherlink.com 1.10,2013-02-19 13:22:00,
2013-02-19 08:37:00,27.3,12.0,29.81,East,94,0.0,-999.0,53,-99.99,,,0.00,weatherlink.com 1.10,2013-02-19 13:37:00,
2013-02-19 08:53:00,27.5,13.0,29.80,East,99,3.0,-999.0,54,-99.99,,,0.00,weatherlink.com 1.10,2013-02-19 13:53:00,
2013-02-19 09:08:00,27.5,12.0,29.80,ESE,104,2.0,-999.0,53,-99.99,,,0.00,weatherlink.com 1.10,2013-02-19 14:08:00,
2013-02-19 09:22:00,27.6,13.0,29.80,ESE,115,0.0,-999.0,54,-99.99,,,0.00,weatherlink.com 1.10,2013-02-19 14:22:00,
2013-02-19 09:37:00,28.1,14.0,29.79,ESE,115,0.0,-999.0,56,-99.99,,,0.00,weatherlink.com 1.10,2013-02-19 14:37:00,
2013-02-19 09:53:00,28.7,14.0,29.77,ESE,115,0.0,-999.0,55,-99.99,,,0.00,weatherlink.com 1.10,2013-02-19 14:53:00,
2013-02-19 10:08:00,29.3,15.0,29.76,SE,124,3.0,-999.0,55,-99.99,,,0.00,weatherlink.com 1.10,2013-02-19 15:08:00,
2013-02-19 10:23:00,29.7,15.0,29.74,SE,124,2.0,-999.0,54,-99.99,,,0.00,weatherlink.com 1.10,2013-02-19 15:23:00,
2013-02-19 10:38:00,30.0,15.0,29.73,SSE,153,0.0,-999.0,55,-99.99,,,0.00,weatherlink.com 1.10,2013-02-19 15:38:00,
2013-02-19 10:53:00,30.1,15.0,29.73,SSE,153,0.0,-999.0,54,-99.99,,,0.00,weatherlink.com 1.10,2013-02-19 15:53:00,
2013-02-19 11:08:00,30.4,16.0,29.73,SE,128,3.0,-999.0,55,-99.99,,,0.00,weatherlink.com 1.10,2013-02-19 16:08:00,
2013-02-19 11:23:00,30.7,17.0,29.71,SE,128,0.0,-999.0,57,-99.99,,,0.00,weatherlink.com 1.10,2013-02-19 16:23:00,
2013-02-19 11:38:00,31.3,17.0,29.72,SE,125,0.0,-999.0,56,-99.99,,,0.00,weatherlink.com 1.10,2013-02-19 16:38:00,
2013-02-19 11:53:00,31.8,19.0,29.71,East,99,0.0,-999.0,60,-99.99,,,0.00,weatherlink.com 1.10,2013-02-19 16:53:00,
2013-02-19 12:08:00,31.9,20.0,29.69,East,99,0.0,-999.0,63,-99.99,,,0.00,weatherlink.com 1.10,2013-02-19 17:08:00,
2013-02-19 12:23:00,30.9,21.0,29.69,North,11,0.0,-999.0,66,-99.99,,,0.00,weatherlink.com 1.10,2013-02-19 17:23:00,
2013-02-19 12:38:00,30.6,23.0,29.68,ESE,119,0.0,-999.0,72,-99.99,,,0.00,weatherlink.com 1.10,2013-02-19 17:38:00,
2013-02-19 12:53:00,29.8,25.0,29.67,ESE,116,0.0,-999.0,81,-99.99,,,0.00,weatherlink.com 1.10,2013-02-19 17:53:00,
2013-02-19 13:08:00,29.5,26.0,29.66,ESE,116,0.0,-999.0,86,-99.99,,,0.00,weatherlink.com 1.10,2013-02-19 18:08:00,
2013-02-19 13:23:00,29.7,27.0,29.66,ESE,116,0.0,-999.0,88,-99.99,,,0.00,weatherlink.com 1.10,2013-02-19 18:23:00,
2013-02-19 13:38:00,30.4,28.0,29.65,ESE,115,0.0,-999.0,91,-99.99,,,0.00,weatherlink.com 1.10,2013-02-19 18:38:00,
2013-02-19 13:53:00,30.4,28.0,29.64,ESE,115,0.0,-999.0,91,-99.99,,,0.00,weatherlink.com 1.10,2013-02-19 18:53:00,
2013-02-19 14:08:00,30.4,28.0,29.64,ESE,116,0.0,-999.0,92,-99.99,,,0.00,weatherlink.com 1.10,2013-02-19 19:08:00,
2013-02-19 14:23:00,31.2,29.0,29.63,ESE,115,0.0,-999.0,93,-99.99,,,0.00,weatherlink.com 1.10,2013-02-19 19:23:00,
2013-02-19 14:38:00,31.9,30.0,29.62,ESE,116,0.0,-999.0,94,-99.99,,,0.00,weatherlink.com 1.10,2013-02-19 19:38:00,
2013-02-19 14:53:00,32.1,31.0,29.62,ESE,116,0.0,-999.0,94,-99.99,,,0.00,weatherlink.com 1.10,2013-02-19 19:53:00,
2013-02-19 15:08:00,31.9,30.0,29.61,ESE,116,0.0,-999.0,94,-99.99,,,0.00,weatherlink.com 1.10,2013-02-19 20:08:00,
2013-02-19 15:23:00,32.1,31.0,29.59,ESE,116,0.0,-999.0,94,-99.99,,,0.00,weatherlink.com 1.10,2013-02-19 20:23:00,
2013-02-19 15:38:00,31.8,30.0,29.59,ESE,117,0.0,-999.0,94,-99.99,,,0.00,weatherlink.com 1.10,2013-02-19 20:38:00,
2013-02-19 15:53:00,31.9,30.0,29.59,ESE,117,0.0,-999.0,94,-99.99,,,0.00,weatherlink.com 1.10,2013-02-19 20:53:00,
2013-02-19 16:08:00,32.1,31.0,29.59,ESE,117,0.0,-999.0,94,-99.99,,,0.00,weatherlink.com 1.10,2013-02-19 21:08:00,
2013-02-19 16:23:00,31.9,30.0,29.59,ESE,117,0.0,-999.0,94,-99.99,,,0.00,weatherlink.com 1.10,2013-02-19 21:23:00,
2013-02-19 16:38:00,31.8,30.0,29.58,ESE,117,0.0,-999.0,94,-99.99,,,0.00,weatherlink.com 1.10,2013-02-19 21:38:00,
2013-02-19 16:53:00,31.5,30.0,29.58,ESE,117,0.0,-999.0,94,-99.99,,,0.00,weatherlink.com 1.10,2013-02-19 21:53:00,
2013-02-19 17:09:00,31.3,30.0,29.58,ESE,117,0.0,-999.0,94,-99.99,,,0.00,weatherlink.com 1.10,2013-02-19 22:09:00,
2013-02-19 17:24:00,31.3,30.0,29.58,ESE,117,0.0,-999.0,94,-99.99,,,0.00,weatherlink.com 1.10,2013-02-19 22:24:00,
2013-02-19 17:38:00,31.3,30.0,29.58,ESE,117,0.0,-999.0,94,-99.99,,,0.00,weatherlink.com 1.10,2013-02-19 22:38:00,
2013-02-19 18:23:00,31.6,30.0,29.59,ESE,117,0.0,-999.0,95,-99.99,,,0.00,weatherlink.com 1.10,2013-02-19 23:23:00,
2013-02-19 18:38:00,31.6,30.0,29.59,ESE,117,0.0,-999.0,95,-99.99,,,0.00,weatherlink.com 1.10,2013-02-19 23:38:00,
2013-02-19 18:53:00,31.8,31.0,29.60,ESE,117,0.0,-999.0,95,-99.99,,,0.00,weatherlink.com 1.10,2013-02-19 23:53:00,
2013-02-19 19:08:00,31.8,31.0,29.61,ESE,117,0.0,-999.0,95,-99.99,,,0.00,weatherlink.com 1.10,2013-02-20 00:08:00,
2013-02-19 19:23:00,32.2,31.0,29.62,NW,308,0.0,-999.0,95,-99.99,,,0.00,weatherlink.com 1.10,2013-02-20 00:23:00,
2013-02-19 19:38:00,31.8,30.0,29.62,WNW,298,0.0,-999.0,93,-99.99,,,0.00,weatherlink.com 1.10,2013-02-20 00:38:00,
2013-02-19 19:54:00,31.3,29.0,29.63,NW,307,0.0,-999.0,90,-99.99,,,0.00,weatherlink.com 1.10,2013-02-20 00:54:00,
2013-02-19 20:08:00,30.6,28.0,29.64,NW,307,0.0,-999.0,89,-99.99,,,0.00,weatherlink.com 1.10,2013-02-20 01:08:00,
2013-02-19 20:23:00,29.7,27.0,29.65,WNW,299,0.0,-999.0,88,-99.99,,,0.00,weatherlink.com 1.10,2013-02-20 01:23:00,
2013-02-19 20:38:00,29.4,26.0,29.65,WNW,291,0.0,-999.0,88,-99.99,,,0.00,weatherlink.com 1.10,2013-02-20 01:38:00,
2013-02-19 20:54:00,29.1,26.0,29.66,WNW,292,0.0,-999.0,88,-99.99,,,0.00,weatherlink.com 1.10,2013-02-20 01:54:00,
2013-02-19 21:08:00,29.0,26.0,29.65,WNW,291,0.0,-999.0,89,-99.99,,,0.00,weatherlink.com 1.10,2013-02-20 02:08:00,
2013-02-19 21:23:00,28.7,26.0,29.65,WNW,294,0.0,-999.0,89,-99.99,,,0.00,weatherlink.com 1.10,2013-02-20 02:23:00,
2013-02-19 21:39:00,28.5,26.0,29.64,WNW,287,0.0,-999.0,89,-99.99,,,0.00,weatherlink.com 1.10,2013-02-20 02:39:00,
2013-02-19 21:53:00,28.2,25.0,29.64,WNW,290,0.0,-999.0,88,-99.99,,,0.00,weatherlink.com 1.10,2013-02-20 02:53:00,
2013-02-19 22:08:00,28.2,25.0,29.64,WNW,290,0.0,-999.0,88,-99.99,,,0.00,weatherlink.com 1.10,2013-02-20 03:08:00,
2013-02-19 22:23:00,28.1,25.0,29.64,WNW,290,0.0,-999.0,88,-99.99,,,0.00,weatherlink.com 1.10,2013-02-20 03:23:00,
2013-02-19 22:38:00,28.2,25.0,29.65,WNW,300,0.0,-999.0,87,-99.99,,,0.00,weatherlink.com 1.10,2013-02-20 03:38:00,
2013-02-19 22:53:00,28.1,24.0,29.64,NW,318,0.0,-999.0,83,-99.99,,,0.00,weatherlink.com 1.10,2013-02-20 03:53:00,
2013-02-19 23:08:00,27.8,23.0,29.64,NW,306,0.0,-999.0,82,-99.99,,,0.00,weatherlink.com 1.10,2013-02-20 04:08:00,
2013-02-19 23:23:00,27.5,23.0,29.64,NW,312,0.0,-999.0,83,-99.99,,,0.00,weatherlink.com 1.10,2013-02-20 04:23:00,
2013-02-19 23:38:00,27.0,23.0,29.64,WNW,302,12.0,-999.0,83,-99.99,,,0.00,weatherlink.com 1.10,2013-02-20 04:38:00,
2013-02-19 23:53:00,26.7,23.0,29.65,WNW,298,4.0,-999.0,84,-99.99,,,0.00,weatherlink.com 1.10,2013-02-20 04:53:00,